N7NKE Weather Reports


time (UTC)temp
C
wind
direction
speed
KPH
gust
KPH
rain 1hr
cm
rain 24hr
cm
rain mn
cm
humidity
%
barometer
mb
20260503035505 17 337 4.8 8.0 0.00 0.00 0.00 76 1012.3
20260503035006 17 315 1.6 3.2 0.00 0.00 0.00 75 1012.2
20260503034505 17 283 1.6 3.2 0.00 0.00 0.00 74 1012.2
20260503034006 18 271 3.2 4.8 0.00 0.00 0.00 74 1012.2
20260503033506 18 283 0.0 3.2 0.00 0.00 0.00 73 1012.2
20260503033007 18 236 6.4 12.9 0.00 0.00 0.00 73 1012.1
20260503032505 18 195 4.8 9.7 0.00 0.00 0.00 73 1012.0
20260503032005 18 240 9.7 19.3 0.00 0.00 0.00 72 1012.0
20260503031505 18 203 12.9 22.5 0.00 0.00 0.00 72 1012.1
20260503030505 18 206 11.3 19.3 0.00 0.00 0.00 72 1012.2
20260503030005 18 200 9.7 19.3 0.00 0.00 0.00 72 1012.1
20260503025505 18 207 9.7 16.1 0.00 0.00 0.00 72 1012.1
20260503025005 18 299 8.0 19.3 0.00 0.00 0.00 72 1012.1
20260503024005 19 203 14.5 27.4 0.00 0.00 0.00 71 1012.2
20260503023505 19 201 14.5 25.7 0.00 0.00 0.00 72 1012.1
20260503023006 20 182 20.9 32.2 0.00 0.00 0.00 71 1012.0
20260503022505 20 196 14.5 32.2 0.00 0.00 0.00 70 1011.9
20260503022005 20 186 11.3 29.0 0.00 0.00 0.00 68 1011.7
20260503021505 20 194 14.5 22.5 0.00 0.00 0.00 68 1011.5
20260503021005 21 179 9.7 16.1 0.00 0.00 0.00 67 1011.2
20260503020505 21 199 9.7 14.5 0.00 0.00 0.00 66 1011.1
20260503015505 21 190 9.7 14.5 0.00 0.00 0.00 64 1011.1
20260503015005 22 155 8.0 12.9 0.00 0.00 0.00 62 1011.0
20260503014505 22 196 4.8 12.9 0.00 0.00 0.00 62 1011.1
20260503014005 22 199 3.2 11.3 0.00 0.00 0.00 62 1011.0
20260503013505 22 170 6.4 12.9 0.00 0.00 0.00 62 1011.1
20260503013006 22 174 6.4 11.3 0.00 0.00 0.00 62 1011.0
20260503012505 22 152 4.8 9.7 0.00 0.00 0.00 61 1010.9
20260503011506 22 129 3.2 8.0 0.00 0.00 0.00 64 1010.9
20260503011006 22 44 0.0 3.2 0.00 0.00 0.00 64 1010.9
20260503010505 22 44 0.0 3.2 0.00 0.00 0.00 64 1010.8
20260503005505 22 77 0.0 3.2 0.00 0.00 0.00 63 1010.8
20260503005005 22 74 1.6 3.2 0.00 0.00 0.00 61 1010.9
20260503004506 22 338 1.6 3.2 0.00 0.00 0.00 64 1010.9
20260503004005 22 320 1.6 3.2 0.00 0.00 0.00 59 1010.8
20260503003504 22 320 0.0 3.2 0.00 0.00 0.00 59 1010.9
20260503003005 22 320 1.6 1.6 0.00 0.00 0.00 59 1010.9
20260503002505 22 288 1.6 3.2 0.00 0.00 0.00 61 1010.9
20260503002005 22 72 1.6 3.2 0.00 0.00 0.00 64 1010.9
20260503001506 22 72 1.6 3.2 0.00 0.00 0.00 65 1010.9
20260503000005 22 6 0.0 3.2 0.00 0.00 0.00 64 1011.1
20260502235505 21 5 1.6 3.2 0.00 0.00 0.00 65 1011.2
20260502234505 21 7 0.0 3.2 0.00 0.00 0.00 65 1011.3
20260502234005 21 7 1.6 1.6 0.00 0.00 0.00 65 1011.4
20260502233005 21 6 1.6 3.2 0.00 0.00 0.00 63 1011.5
20260502232505 21 25 1.6 1.6 0.00 0.00 0.00 62 1011.6
20260502230505 21 75 3.2 4.8 0.00 0.00 0.00 62 1011.9
20260502230005 21 77 1.6 4.8 0.00 0.00 0.00 61 1012.0
20260502225504 21 9 3.2 3.2 0.00 0.00 0.00 63 1012.0
20260502225005 21 57 1.6 3.2 0.00 0.00 0.00 62 1012.1
20260502223505 21 82 1.6 8.0 0.00 0.00 0.00 61 1012.4
20260502223005 21 16 1.6 4.8 0.00 0.00 0.00 62 1012.5
20260502222504 21 335 4.8 9.7 0.00 0.00 0.00 61 1012.6
20260502222005 21 31 3.2 9.7 0.00 0.00 0.00 64 1012.7
20260502221505 20 359 3.2 8.0 0.00 0.00 0.00 61 1012.7
20260502221005 20 19 1.6 8.0 0.00 0.00 0.00 62 1012.8
20260502220505 20 22 3.2 8.0 0.00 0.00 0.00 63 1012.9
20260502220005 20 39 3.2 9.7 0.00 0.00 0.00 65 1012.9
20260502215505 20 7 4.8 9.7 0.00 0.00 0.00 65 1013.0
20260502215005 19 25 4.8 12.9 0.00 0.00 0.00 66 1013.1
20260502214505 19 3 4.8 9.7 0.00 0.00 0.00 65 1013.2
20260502213005 19 355 3.2 9.7 0.00 0.00 0.00 66 1013.3
20260502212505 18 5 3.2 8.0 0.00 0.00 0.00 67 1013.4
20260502212005 18 6 6.4 14.5 0.00 0.00 0.00 66 1013.4
20260502211506 18 41 8.0 14.5 0.00 0.00 0.00 66 1013.6
20260502211005 18 114 4.8 11.3 0.00 0.00 0.00 67 1013.7
20260502205505 18 14 3.2 4.8 0.00 0.00 0.00 68 1013.8
20260502205005 17 359 3.2 3.2 0.00 0.00 0.00 68 1014.0
20260502204005 17 221 4.8 8.0 0.00 0.00 0.00 69 1014.1
20260502203505 17 339 3.2 11.3 0.00 0.00 0.00 69 1014.2
20260502203005 17 107 3.2 11.3 0.00 0.00 0.00 69 1014.2
20260502202505 17 21 3.2 8.0 0.00 0.00 0.00 70 1014.4
20260502202005 16 77 4.8 9.7 0.00 0.00 0.00 74 1014.3
20260502201505 16 344 3.2 4.8 0.00 0.00 0.00 73 1014.5
20260502200505 16 46 3.2 9.7 0.00 0.00 0.00 74 1014.6
20260502200005 15 341 3.2 8.0 0.00 0.00 0.00 75 1014.7
20260502195005 14 75 6.4 11.3 0.00 0.00 0.00 81 1015.0
20260502194005 13 0 4.8 9.7 0.00 0.00 0.00 82 1015.2
20260502193505 13 0 4.8 9.7 0.00 0.00 0.00 82 1015.4
20260502193005 13 333 4.8 9.7 0.00 0.00 0.00 81 1014.9
20260502192505 13 14 4.8 8.0 0.00 0.00 0.00 80 1015.3
20260502192005 13 25 1.6 8.0 0.00 0.00 0.00 80 1015.2
20260502191505 14 25 3.2 9.7 0.00 0.00 0.00 78 1015.0
20260502191005 14 0 4.8 8.0 0.00 0.00 0.00 78 1015.1
20260502190504 15 30 4.8 12.9 0.00 0.00 0.00 76 1015.5
20260502190006 15 23 6.4 16.1 0.00 0.00 0.00 76 1015.6
20260502185505 15 68 4.8 9.7 0.00 0.00 0.00 77 1015.7
20260502185005 15 357 3.2 9.7 0.00 0.00 0.00 74 1015.6
20260502184505 15 342 3.2 8.0 0.00 0.00 0.00 74 1015.6
20260502183505 15 13 4.8 12.9 0.00 0.00 0.00 72 1015.5
20260502183005 15 13 3.2 8.0 0.00 0.00 0.00 73 1015.6
20260502182505 15 345 3.2 8.0 0.00 0.00 0.00 74 1015.6
20260502182005 15 25 1.6 4.8 0.00 0.00 0.00 72 1015.5
20260502181505 15 324 1.6 4.8 0.00 0.00 0.00 74 1015.7
20260502181005 14 95 3.2 8.0 0.00 0.00 0.00 75 1015.8
20260502170505 12 73 1.6 3.2 0.00 0.00 0.00 81 1016.1
20260502163504 12 6 3.2 8.0 0.00 0.00 0.00 79 1016.3
20260502163005 12 351 1.6 3.2 0.00 0.00 0.00 79 1016.4
20260502162505 12 349 1.6 4.8 0.00 0.00 0.00 78 1016.4
20260502162005 12 356 1.6 3.2 0.00 0.00 0.00 79 1016.5
20260502161505 12 0 3.2 8.0 0.00 0.00 0.00 79 1016.4
20260502161005 12 296 4.8 8.0 0.00 0.00 0.00 79 1016.4
20260502152005 10 0 3.2 9.7 0.00 0.00 0.00 82 1016.2
20260502151505 10 0 3.2 19.3 0.00 0.00 0.00 82 1016.1
20260502151005 10 326 4.8 16.1 0.00 0.00 0.00 82 1015.7
20260502130505 9 329 1.6 3.2 0.00 0.00 0.00 84 1016.2
20260502123505 9 335 1.6 4.8 0.00 0.00 0.00 83 1016.3
20260502123005 9 276 1.6 4.8 0.00 0.00 0.00 84 1016.2
20260502122505 9 315 4.8 12.9 0.00 0.00 0.00 84 1016.2
20260502122005 9 325 3.2 9.7 0.00 0.00 0.00 84 1016.2
20260502121005 9 321 6.4 9.7 0.00 0.00 0.00 84 1016.3
20260502115504 9 330 6.4 12.9 0.00 0.00 0.00 85 1016.1
20260502115005 9 345 8.0 9.7 0.00 0.00 0.00 85 1016.2
20260502114005 9 0 4.8 8.0 0.00 0.00 0.00 85 1016.4
20260502113504 8 0 4.8 8.0 0.00 0.00 0.00 85 1016.5
20260502113005 8 0 3.2 3.2 0.00 0.00 0.00 85 1016.4
20260502112505 9 0 3.2 8.0 0.00 0.00 0.00 85 1016.3
20260502111505 9 0 4.8 4.8 0.00 0.00 0.00 83 1016.1
20260502111005 9 0 3.2 8.0 0.00 0.00 0.00 83 1016.0
20260502110504 9 0 4.8 9.7 0.00 0.00 0.00 83 1015.9
20260502110005 9 0 3.2 4.8 0.00 0.00 0.00 82 1015.8
20260502105504 9 24 3.2 3.2 0.00 0.00 0.00 82 1015.8
20260502105005 9 22 1.6 3.2 0.00 0.00 0.00 82 1016.0
20260502104505 9 85 1.6 3.2 0.00 0.00 0.00 82 1016.1
20260502104005 9 53 1.6 3.2 0.00 0.00 0.00 81 1015.9
20260502103504 9 357 0.0 3.2 0.00 0.00 0.00 81 1015.9
20260502103005 9 348 3.2 3.2 0.00 0.00 0.00 81 1015.9
20260502102505 9 285 0.0 3.2 0.00 0.00 0.00 81 1015.9
20260502102004 9 342 1.6 9.7 0.00 0.00 0.00 82 1015.9
20260502101505 9 348 0.0 3.2 0.00 0.00 0.00 82 1015.9
20260502101004 10 353 1.6 3.2 0.00 0.00 0.00 82 1016.0
20260502100505 10 325 0.0 3.2 0.00 0.00 0.00 82 1016.2
20260502091505 10 327 3.2 4.8 0.00 0.00 0.00 80 1017.0
20260502090505 10 351 3.2 3.2 0.00 0.00 0.00 79 1017.0
20260502071505 12 332 4.8 12.9 0.00 0.00 0.00 70 1016.9
20260502070505 12 343 8.0 12.9 0.00 0.00 0.00 70 1016.8
20260502070005 12 349 8.0 12.9 0.00 0.00 0.00 71 1016.8
20260502065504 12 332 9.7 14.5 0.00 0.00 0.00 72 1016.8
20260502065004 12 332 6.4 9.7 0.00 0.00 0.00 72 1016.9
20260502064505 12 340 8.0 12.9 0.00 0.00 0.00 72 1016.9
20260502064004 12 336 8.0 12.9 0.00 0.00 0.00 72 1016.9
20260502063505 12 321 8.0 12.9 0.00 0.00 0.00 72 1016.9
20260502062504 12 331 4.8 9.7 0.00 0.00 0.00 71 1016.9
20260502062004 12 320 4.8 8.0 0.00 0.00 0.00 70 1016.9
20260502061505 12 291 3.2 8.0 0.00 0.00 0.00 70 1016.9
20260502061005 12 346 3.2 8.0 0.00 0.00 0.00 70 1016.7
20260502060005 12 333 3.2 8.0 0.00 0.00 0.00 69 1016.7
20260502055504 12 13 3.2 4.8 0.00 0.00 0.00 68 1016.7
20260502055005 12 338 3.2 8.0 0.00 0.00 0.00 67 1016.5
20260502054504 13 330 3.2 8.0 0.00 0.00 0.00 66 1016.5
20260502053505 13 0 3.2 8.0 0.00 0.00 0.00 64 1016.5
20260502053005 13 355 3.2 8.0 0.00 0.00 0.00 63 1016.5
20260502051505 13 31 1.6 3.2 0.00 0.00 0.00 61 1016.4
20260502051004 14 31 3.2 8.0 0.00 0.00 0.00 61 1016.3
20260502045504 14 72 0.0 3.2 0.00 0.00 0.00 60 1016.2
20260502044504 15 20 1.6 4.8 0.00 0.00 0.00 59 1016.0
20260502044005 15 34 1.6 3.2 0.00 0.00 0.00 59 1015.9
20260502043504 15 16 1.6 4.8 0.00 0.00 0.00 58 1015.8
20260502043004 15 305 6.4 12.9 0.00 0.00 0.00 58 1015.8
20260502042504 15 352 4.8 8.0 0.00 0.00 0.00 58 1015.7
20260502041504 15 350 3.2 12.9 0.00 0.00 0.00 57 1015.6
20260502041004 15 334 4.8 12.9 0.00 0.00 0.00 56 1015.5
20260502040504 15 322 8.0 14.5 0.00 0.00 0.00 56 1015.4